Simultaneous Nadir Overpasses (SNOs) Predictions

Prediction of SNOs between NOAA-19 and METOP-C Satellite Orbit:

Table of predicted SNOs for the next 14.0 days since TLE Epoch: 12/13/2019
Index Date (NOAA-19) Time (NOAA-19) Lat,Lon (NOAA-19) SZA (NOAA-19 ) Date (METOP-C) Time (METOP-C) Lat,Lon (METOP-C) SZA (METOP-C ) Distance(km) Time Diff (sec)
1 12/24/2019 01:46:53 79.88, 170.50 103.68 12/24/2019 01:47:59 79.83, 174.02 103.85 69.27 66
2 12/24/2019 02:37:41 -79.67, -19.92 76.40 12/24/2019 02:38:44 -79.68, -20.00 76.38 2.01 63
3 12/24/2019 03:28:46 79.67, 147.30 103.61 12/24/2019 03:29:25 79.67, 147.19 103.60 2.44 39
4 12/24/2019 04:19:42 -79.68, -45.51 76.40 12/24/2019 04:20:05 -79.68, -45.41 76.39 2.06 23
5 12/24/2019 05:10:47 79.68, 121.72 103.61 12/24/2019 05:10:46 79.66, 121.78 103.59 2.88 1
6 12/24/2019 06:01:42 -79.66, -70.80 76.40 12/24/2019 06:01:26 -79.67, -70.82 76.40 0.54 16
7 12/24/2019 06:52:47 79.66, 96.43 103.60 12/24/2019 06:52:07 79.65, 96.38 103.58 1.68 40
8 12/24/2019 07:43:42 -79.64, -96.10 76.41 12/24/2019 07:42:47 -79.66, -96.22 76.42 2.99 55




NCC Satellite Simultaneous Nadir Overpasses (SNOs) Prediction Service
